| time (UTC) | temp F | wind direction | speed knots | gust knots | rain 1hr in | rain 24hr in | rain mn in | humidity % | barometer mb |
| 20260505193035 | 79 | 321 | 2.6 | 7.8 | 0.00 | 0.00 | 0.00 | 45 | 1012.5 |
| 20260505191532 | 77 | 300 | 3.5 | 9.6 | 0.00 | 0.00 | 0.00 | 45 | 1012.6 |
| 20260505190105 | 77 | 287 | 3.5 | 13.9 | 0.00 | 0.00 | 0.00 | 46 | 1012.6 |
| 20260505184617 | 76 | 286 | 2.6 | 9.6 | 0.00 | 0.00 | 0.00 | 47 | 1012.8 |
| 20260505183030 | 75 | 292 | 2.6 | 11.3 | 0.00 | 0.00 | 0.00 | 49 | 1012.9 |
| 20260505181530 | 74 | 289 | 4.3 | 9.6 | 0.00 | 0.00 | 0.00 | 49 | 1012.9 |
| 20260505180031 | 74 | 272 | 4.3 | 12.2 | 0.00 | 0.00 | 0.00 | 50 | 1012.9 |
| 20260505174530 | 73 | 265 | 3.5 | 11.3 | 0.00 | 0.00 | 0.00 | 52 | 1013.0 |
| 20260505173036 | 72 | 244 | 3.5 | 9.6 | 0.00 | 0.00 | 0.00 | 53 | 1013.0 |
| 20260505171531 | 73 | 250 | 5.2 | 14.8 | 0.00 | 0.00 | 0.00 | 53 | 1013.0 |
| 20260505170037 | 72 | 239 | 1.7 | 8.7 | 0.00 | 0.00 | 0.00 | 55 | 1013.0 |
| 20260505164530 | 70 | 226 | 1.7 | 9.6 | 0.00 | 0.00 | 0.00 | 57 | 1013.0 |
| 20260505163107 | 69 | 222 | 2.6 | 7.0 | 0.00 | 0.00 | 0.00 | 58 | 1013.0 |
| 20260505161537 | 67 | 264 | 1.7 | 7.0 | 0.00 | 0.00 | 0.00 | 61 | 1013.1 |
| 20260505153029 | 64 | 281 | 2.6 | 8.7 | 0.00 | 0.00 | 0.00 | 67 | 1012.8 |
| 20260505151533 | 63 | 296 | 2.6 | 4.3 | 0.00 | 0.00 | 0.00 | 68 | 1012.7 |
| 20260505123031 | 61 | 263 | 3.5 | 10.4 | 0.00 | 0.00 | 0.00 | 69 | 1011.1 |
| 20260505121535 | 62 | 323 | 0.0 | 7.8 | 0.00 | 0.00 | 0.00 | 68 | 1010.9 |
| 20260505120040 | 62 | 288 | 0.9 | 7.8 | 0.00 | 0.00 | 0.00 | 67 | 1010.9 |
| 20260505114529 | 62 | 246 | 1.7 | 7.0 | 0.00 | 0.00 | 0.00 | 67 | 1010.8 |
| 20260505113029 | 63 | 227 | 3.5 | 9.6 | 0.00 | 0.00 | 0.00 | 66 | 1010.7 |
| 20260505111532 | 63 | 214 | 2.6 | 7.8 | 0.00 | 0.00 | 0.00 | 66 | 1010.5 |
| 20260505101604 | 64 | 234 | 3.5 | 15.6 | 0.00 | 0.00 | 0.00 | 66 | 1010.0 |
| 20260505100119 | 0 | 0 | 0.0 | 0.0 | 0.00 | 0.00 | 0.00 | 100 | |
| 20260505094528 | 63 | 239 | 2.6 | 7.0 | 0.00 | 0.00 | 0.00 | 69 | 1009.9 |
| 20260505093030 | 63 | 252 | 1.7 | 7.8 | 0.00 | 0.00 | 0.00 | 70 | 1009.9 |
| 20260505091531 | 63 | 59 | 0.9 | 16.5 | 0.00 | 0.00 | 0.00 | 70 | 1009.8 |
| 20260505090106 | 62 | 96 | 1.7 | 9.6 | 0.00 | 0.00 | 0.00 | 70 | 1009.7 |
| 20260505084533 | 63 | 240 | 0.9 | 4.3 | 0.00 | 0.00 | 0.00 | 68 | 1009.6 |
| 20260505083031 | 64 | 134 | 0.9 | 6.1 | 0.00 | 0.00 | 0.00 | 67 | 1009.6 |
| 20260505081532 | 65 | 40 | 0.9 | 4.3 | 0.00 | 0.00 | 0.00 | 66 | 1009.5 |
| 20260505080104 | 65 | 243 | 0.0 | 2.6 | 0.00 | 0.00 | 0.00 | 66 | 1009.5 |
| 20260505074607 | 65 | 232 | 1.7 | 8.7 | 0.00 | 0.00 | 0.00 | 67 | 1009.4 |
| 20260505073106 | 64 | 255 | 1.7 | 11.3 | 0.00 | 0.00 | 0.00 | 69 | 1009.3 |
| 20260505071533 | 62 | 173 | 1.7 | 5.2 | 0.00 | 0.00 | 0.00 | 70 | 1009.2 |
| 20260505064605 | 64 | 121 | 0.0 | 3.5 | 0.00 | 0.00 | 0.00 | 64 | 1009.1 |
| 20260505063029 | 66 | 126 | 0.9 | 3.5 | 0.00 | 0.00 | 0.00 | 61 | 1008.9 |
| 20260505061534 | 67 | 192 | 0.0 | 4.3 | 0.00 | 0.00 | 0.00 | 59 | 1008.8 |
| 20260505060030 | 68 | 252 | 1.7 | 6.1 | 0.00 | 0.00 | 0.00 | 58 | 1008.7 |
| 20260505054532 | 68 | 259 | 1.7 | 5.2 | 0.00 | 0.00 | 0.00 | 57 | 1008.6 |
| 20260505053032 | 68 | 253 | 2.6 | 6.1 | 0.00 | 0.00 | 0.00 | 57 | 1008.4 |
| 20260505051609 | 68 | 247 | 1.7 | 6.1 | 0.00 | 0.00 | 0.00 | 56 | 1008.4 |
| 20260505041531 | 69 | 234 | 1.7 | 7.0 | 0.00 | 0.00 | 0.00 | 53 | 1007.9 |
| 20260505040046 | 69 | 223 | 1.7 | 5.2 | 0.00 | 0.00 | 0.00 | 52 | 1007.6 |
| 20260505034533 | 71 | 239 | 1.7 | 5.2 | 0.00 | 0.00 | 0.00 | 51 | 1007.4 |
| 20260505033033 | 71 | 227 | 2.6 | 8.7 | 0.00 | 0.00 | 0.00 | 50 | 1007.2 |
| 20260505031529 | 71 | 232 | 3.5 | 8.7 | 0.00 | 0.00 | 0.00 | 50 | 1007.1 |
| 20260505030032 | 73 | 251 | 1.7 | 6.1 | 0.00 | 0.00 | 0.00 | 47 | 1006.9 |
| 20260505024540 | 75 | 241 | 3.5 | 13.9 | 0.00 | 0.00 | 0.00 | 45 | 1006.7 |
| 20260505023030 | 76 | 234 | 5.2 | 11.3 | 0.00 | 0.00 | 0.00 | 44 | 1006.6 |
| 20260505021531 | 78 | 236 | 4.3 | 8.7 | 0.00 | 0.00 | 0.00 | 43 | 1006.6 |
| 20260505020033 | 80 | 271 | 2.6 | 9.6 | 0.00 | 0.00 | 0.00 | 41 | 1006.6 |
| 20260505014607 | 81 | 254 | 3.5 | 11.3 | 0.00 | 0.00 | 0.00 | 40 | 1006.5 |
| 20260505013031 | 82 | 250 | 4.3 | 13.0 | 0.00 | 0.00 | 0.00 | 39 | 1006.4 |
| 20260505011530 | 82 | 256 | 7.0 | 17.4 | 0.00 | 0.00 | 0.00 | 38 | 1006.4 |
| 20260505010144 | 82 | 260 | 5.2 | 11.3 | 0.00 | 0.00 | 0.00 | 39 | 1006.3 |
| 20260505004529 | 83 | 240 | 5.2 | 15.6 | 0.00 | 0.00 | 0.00 | 38 | 1006.3 |
| 20260505003032 | 83 | 260 | 5.2 | 14.8 | 0.00 | 0.00 | 0.00 | 38 | 1006.4 |
| 20260505000031 | 82 | 266 | 4.3 | 8.7 | 0.00 | 0.00 | 0.00 | 40 | 1006.5 |
| 20260504231607 | 83 | 289 | 5.2 | 12.2 | 0.00 | 0.00 | 0.00 | 40 | 1006.6 |
| 20260504230031 | 83 | 269 | 6.1 | 14.8 | 0.00 | 0.00 | 0.00 | 39 | 1006.8 |
| 20260504223102 | 83 | 296 | 4.3 | 12.2 | 0.00 | 0.00 | 0.00 | 39 | 1007.1 |
| 20260504221531 | 83 | 253 | 3.5 | 11.3 | 0.00 | 0.00 | 0.00 | 39 | 1007.3 |
| 20260504220031 | 83 | 273 | 2.6 | 7.8 | 0.00 | 0.00 | 0.00 | 39 | 1007.3 |
| 20260504214530 | 84 | 294 | 5.2 | 10.4 | 0.00 | 0.00 | 0.00 | 37 | 1007.6 |
| 20260504213030 | 86 | 279 | 3.5 | 10.4 | 0.00 | 0.00 | 0.00 | 36 | 1007.7 |
| 20260504211533 | 88 | 268 | 3.5 | 12.2 | 0.00 | 0.00 | 0.00 | 33 | 1007.8 |
| 20260504210031 | 89 | 280 | 2.6 | 7.0 | 0.00 | 0.00 | 0.00 | 35 | 1008.0 |
| 20260504204530 | 87 | 328 | 2.6 | 8.7 | 0.00 | 0.00 | 0.00 | 34 | 1008.1 |
| 20260504203108 | 87 | 282 | 4.3 | 10.4 | 0.00 | 0.00 | 0.00 | 34 | 1008.2 |
| 20260504201607 | 86 | 269 | 2.6 | 7.0 | 0.00 | 0.00 | 0.00 | 35 | 1008.4 |
| 20260504200031 | 86 | 287 | 4.3 | 12.2 | 0.00 | 0.00 | 0.00 | 35 | 1008.5 |